{"data":{"norad_id":66940,"intl_designator":"2025-286R","name":"STARLINK-36121","alt_names":[],"object_type":"PAYLOAD","status":"ACTIVE","operator":null,"country":"US","launch_date":"2025-12-07","launch_site_code":"AFWTR","launch_vehicle":null,"mission":null,"orbit_class":"UNKNOWN","rcs_meters":null,"size_class":null,"mass_kg":null,"dimensions":null,"purposes":["comms"],"wikipedia_slug":null,"has_3d_model":false,"image_url":null,"decayed_at":null,"tle_current":{"epoch":"2026-05-24T23:46:45.323904Z","epoch_age_seconds":86095,"freshness":"FRESH","line1":"1 66940U 25286R   26144.99080236  .00022905  00000+0  68690-3 0  9991","line2":"2 66940  53.1614   3.6956 0001064  86.4541 273.6583 15.34403202 27103","mean_motion":15.34403202,"eccentricity":0.0001064,"inclination_deg":53.1614,"raan_deg":3.6956,"arg_perigee_deg":86.4541,"mean_anomaly_deg":273.6583,"bstar":0.0006869,"rev_number":2710,"period_min":93.847562239381,"perigee_km":461.96585881592,"apogee_km":463.42158759381,"semimajor_km":6840.8307232049,"source":"CELESTRAK","updated_at":"2026-05-25T13:38:21.388525Z"}}}